Regional Weather Roundup
Issued by NWS

Home | Current Version | Previous Version | Graphics & Text | Print | Product List | Glossary On
Versions: 1 2 3 4 5 6 7 8 9 10 11 12 13 14 15 16 17 18 19 20 21 22 23 24 25 26 27 28 29 30 31 32 33 34 35 36 37 38 39 40 41 42 43 44 45 46 47 48 49 50
000
ASUS44 KMEG 030210
RWRTN
TENNESSEE HOURLY STATE WEATHER ROUNDUP
NATIONAL WEATHER SERVICE MEMPHIS TN
900 PM CDT MON MAY 02 2016

TNZ002-004-019-021-049-052-054-088>092-030300-
WEST TENNESSEE

CITY           SKY/WX    TMP DP  RH WIND       PRES   REMARKS
MEMPHIS INTL   MOCLDY    64  56  75 CALM      29.99R
NWS MEMPHIS      N/A     60 N/A N/A MISG        N/A
JACKSON        CLOUDY    62  58  86 W3        29.98R
DYERSBURG      CLOUDY    61  54  77 CALM        N/A
UNION CITY     MOCLDY    59  54  82 N6        29.98R
LEXINGTON      MOCLDY    57  57 100 CALM      29.97R
$$

TNZ008-025-027-028-033-062-065-066-030300-
NORTH MIDDLE TENNESSEE

CITY           SKY/WX    TMP DP  RH WIND       PRES   REMARKS
NASHVILLE      CLOUDY    60  56  86 CALM      29.95F
CLARKSVILLE    CLOUDY    60  56  86 NW5       29.97R
SMYRNA         CLOUDY    59  59 100 NE5       29.97S FOG
COOKEVILLE     CLOUDY    63  63 100 CALM      29.93R
CROSSVILLE     CLOUDY    62  58  86 CALM      29.95F
$$

TNZ061-075-076-078-094-096-097-030300-
SOUTH MIDDLE TENNESSEE

CITY           SKY/WX    TMP DP  RH WIND       PRES   REMARKS
FAYETTEVILLE   CLOUDY    64  63  94 CALM      29.95R
TULLAHOMA      CLOUDY    63  63 100 CALM      29.96R
WINCHESTER     MOCLDY    63  61  94 CALM      29.94R
MCMINNVILLE    CLOUDY    63  63 100 CALM      29.95R
COLUMBIA       CLOUDY   N/A N/A N/A NW3       29.94S
SHELBYVILLE    CLOUDY    64  64 100 W5        29.96R
$$

TNZ017-018-042-046-047-030300-
NORTHEAST TENNESSEE

CITY           SKY/WX    TMP DP  RH WIND       PRES   REMARKS
TRI CITIES     CLOUDY    60  56  86 CALM      29.96F
$$

TNZ012-013-036-069-073-074-030300-
CENTRAL EAST TENNESSEE

CITY           SKY/WX    TMP DP  RH WIND       PRES   REMARKS
KNOXVILLE      CLOUDY    63  59  87 CALM      29.94S
OAK RIDGE      CLOUDY    62  58  86 CALM      29.95F
GATLINBURG     CLOUDY    63  61  94 S3        29.94S
MORRISTOWN     MOCLDY    61  61 100 CALM      29.95S
$$

TNZ083-085-099-030300-
SOUTHEAST TENNESSEE

CITY           SKY/WX    TMP DP  RH WIND       PRES   REMARKS
CHATTANOOGA    LGT RAIN  67  63  87 NE3       29.93F
$$

SKY/WX REPORTED AS FAIR MEANS FEW OR NO CLOUDS BELOW
12 THOUSAND FEET.




USA.gov is the U.S. government's official web portal to all federal, state and local government web resources and services.